• In Switzerland
  • List of Countries
  • For 7 days
  • Water Temperature
  • Satellite Maps
  • Weather Map
  • Weather Widgets
  • user-avatar
    Login

    Hourly Weather Levki

    Today, 19 September, Wednesday

    Time Temperature Precipitation Wind Pressure Humidity
    00:00 +17°C° 0 mm 2 mps 750 mmHg 84%
    01:00 +16°C° 0 mm 2 mps 750 mmHg 85%
    02:00 +16°C° 0 mm 2 mps 750 mmHg 87%
    03:00 +16°C° 0 mm 2 mps 749 mmHg 88%
    04:00 +15°C° 0 mm 2 mps 749 mmHg 89%
    05:00 +14°C° 0 mm 3 mps 749 mmHg 90%
    06:00 +16°C° 0 mm 3 mps 749 mmHg 85%
    07:00 +17°C° 0 mm 3 mps 749 mmHg 81%
    08:00 +18°C° 0 mm 3 mps 750 mmHg 75%
    09:00 +20°C° 0 mm 3 mps 750 mmHg 69%
    10:00 +21°C° 0 mm 4 mps 750 mmHg 63%
    11:00 +23°C° 0 mm 4 mps 750 mmHg 57%
    12:00 +25°C° 0 mm 4 mps 750 mmHg 53%
    13:00 +26°C° 0 mm 4 mps 750 mmHg 49%
    14:00 +28°C° 0 mm 4 mps 749 mmHg 45%
    15:00 +27°C° 0 mm 4 mps 749 mmHg 48%
    16:00 +27°C° 0 mm 3 mps 749 mmHg 51%
    17:00 +26°C° 0 mm 3 mps 749 mmHg 54%
    18:00 +24°C° 0 mm 3 mps 749 mmHg 58%
    19:00 +22°C° 0 mm 3 mps 749 mmHg 61%
    20:00 +20°C° 0 mm 3 mps 749 mmHg 65%
    21:00 +19°C° 0 mm 3 mps 749 mmHg 66%
    22:00 +19°C° 0 mm 3 mps 749 mmHg 67%
    23:00 +18°C° 0 mm 2 mps 749 mmHg 69%

    Tomorrow, 20 September, Thursday

    Time Temperature Precipitation Wind Pressure Humidity
    00:00 +18°C° 0 mm 2 mps 750 mmHg 70%
    01:00 +17°C° 0 mm 2 mps 750 mmHg 71%
    02:00 +17°C° 0 mm 2 mps 750 mmHg 72%
    03:00 +17°C° 0 mm 2 mps 750 mmHg 74%
    04:00 +16°C° 0 mm 2 mps 750 mmHg 75%
    05:00 +16°C° 0 mm 2 mps 750 mmHg 76%
    06:00 +17°C° 0 mm 2 mps 750 mmHg 75%
    07:00 +18°C° 0 mm 2 mps 750 mmHg 73%
    08:00 +19°C° 0 mm 2 mps 750 mmHg 71%
    09:00 +21°C° 0 mm 2 mps 750 mmHg 66%
    10:00 +24°C° 0 mm 2 mps 751 mmHg 61%
    11:00 +26°C° 0 mm 2 mps 751 mmHg 55%
    12:00 +27°C° 0 mm 2 mps 750 mmHg 53%
    13:00 +27°C° 0 mm 2 mps 750 mmHg 50%
    14:00 +28°C° 0 mm 2 mps 750 mmHg 48%
    15:00 +28°C° 0 mm 2 mps 750 mmHg 50%
    16:00 +28°C° 0 mm 2 mps 750 mmHg 52%
    17:00 +27°C° 0 mm 1 mps 750 mmHg 55%
    18:00 +25°C° 0 mm 1 mps 750 mmHg 59%
    19:00 +24°C° 0 mm 2 mps 750 mmHg 63%
    20:00 +21°C° 0 mm 2 mps 750 mmHg 67%
    21:00 +20°C° 0 mm 2 mps 750 mmHg 68%
    22:00 +20°C° 0 mm 2 mps 750 mmHg 69%
    23:00 +19°C° 0 mm 2 mps 750 mmHg 71%

    Day after tomorrow, 21 September, Friday

    Time Temperature Precipitation Wind Pressure Humidity
    00:00 +19°C° 0 mm 2 mps 750 mmHg 71%
    01:00 +18°C° 0 mm 2 mps 750 mmHg 72%
    02:00 +18°C° 0 mm 2 mps 750 mmHg 73%
    03:00 +17°C° 0 mm 2 mps 749 mmHg 73%
    04:00 +17°C° 0 mm 2 mps 749 mmHg 74%
    05:00 +16°C° 0 mm 2 mps 749 mmHg 74%
    06:00 +17°C° 0 mm 2 mps 749 mmHg 72%
    07:00 +18°C° 0 mm 2 mps 749 mmHg 71%
    08:00 +18°C° 0 mm 2 mps 749 mmHg 69%
    09:00 +20°C° 0 mm 3 mps 749 mmHg 63%
    10:00 +22°C° 0 mm 3 mps 749 mmHg 58%
    11:00 +25°C° 0 mm 4 mps 749 mmHg 52%
    12:00 +26°C° 0 mm 4 mps 748 mmHg 50%
    13:00 +26°C° 0 mm 5 mps 748 mmHg 48%
    14:00 +27°C° 0 mm 5 mps 747 mmHg 46%
    15:00 +27°C° 0 mm 5 mps 747 mmHg 49%
    16:00 +26°C° 0 mm 4 mps 746 mmHg 52%
    17:00 +26°C° 0 mm 4 mps 746 mmHg 55%
    18:00 +23°C° 0 mm 4 mps 745 mmHg 57%
    19:00 +22°C° 0 mm 4 mps 745 mmHg 59%
    20:00 +20°C° 0 mm 4 mps 745 mmHg 62%
    21:00 +20°C° 0 mm 5 mps 745 mmHg 63%
    22:00 +20°C° 0 mm 5 mps 744 mmHg 65%
    23:00 +20°C° 0 mm 5 mps 744 mmHg 66%

    22 September, Saturday

    Time Temperature Precipitation Wind Pressure Humidity
    00:00 +20°C° 0 mm 5 mps 744 mmHg 66%
    01:00 +19°C° 0 mm 5 mps 744 mmHg 66%
    02:00 +19°C° 0 mm 5 mps 744 mmHg 65%
    03:00 +17°C° 0.1 mm 5 mps 744 mmHg 70%
    04:00 +17°C° 0.1 mm 4 mps 745 mmHg 74%
    05:00 +15°C° 0.1 mm 4 mps 745 mmHg 79%
    06:00 +15°C° 0.2 mm 4 mps 746 mmHg 79%
    07:00 +14°C° 0.2 mm 4 mps 746 mmHg 80%
    08:00 +13°C° 0.2 mm 4 mps 747 mmHg 80%
    09:00 +13°C° 0 mm 4 mps 747 mmHg 73%
    10:00 +14°C° 0 mm 4 mps 747 mmHg 66%
    11:00 +15°C° 0 mm 4 mps 748 mmHg 59%
    12:00 +14°C° 0.1 mm 4 mps 748 mmHg 59%
    13:00 +14°C° 0.1 mm 4 mps 748 mmHg 59%
    14:00 +14°C° 0.1 mm 5 mps 748 mmHg 60%
    15:00 +14°C° 0.1 mm 5 mps 748 mmHg 60%
    16:00 +14°C° 0.1 mm 5 mps 748 mmHg 61%
    17:00 +14°C° 0.1 mm 5 mps 747 mmHg 61%
    18:00 +13°C° 0.1 mm 4 mps 747 mmHg 64%
    19:00 +12°C° 0.1 mm 4 mps 748 mmHg 67%
    20:00 +12°C° 0.1 mm 4 mps 748 mmHg 70%
    21:00 +11°C° 0 mm 4 mps 748 mmHg 73%
    22:00 +10°C° 0 mm 4 mps 747 mmHg 75%
    23:00 +10°C° 0 mm 4 mps 747 mmHg 78%

    23 September, Sunday

    Time Temperature Precipitation Wind Pressure Humidity
    00:00 +10°C° 0 mm 4 mps 747 mmHg 78%
    01:00 +8°C° 0 mm 4 mps 747 mmHg 78%
    02:00 +9°C° 0 mm 3 mps 747 mmHg 78%
    03:00 +9°C° 0 mm 3 mps 747 mmHg 78%
    04:00 +8°C° 0 mm 3 mps 747 mmHg 78%
    05:00 +7°C° 0 mm 4 mps 747 mmHg 77%
    06:00 +8°C° 0 mm 4 mps 747 mmHg 74%
    07:00 +9°C° 0 mm 5 mps 747 mmHg 70%
    08:00 +9°C° 0 mm 5 mps 747 mmHg 66%
    09:00 +11°C° 0 mm 6 mps 748 mmHg 61%
    10:00 +13°C° 0 mm 6 mps 748 mmHg 55%
    11:00 +14°C° 0 mm 7 mps 748 mmHg 50%
    12:00 +15°C° 0 mm 7 mps 748 mmHg 47%
    13:00 +15°C° 0 mm 6 mps 747 mmHg 45%
    14:00 +16°C° 0 mm 6 mps 747 mmHg 43%
    15:00 +16°C° 0 mm 5 mps 747 mmHg 45%
    16:00 +15°C° 0 mm 4 mps 746 mmHg 47%
    17:00 +16°C° 0 mm 3 mps 746 mmHg 48%
    18:00 +14°C° 0 mm 3 mps 746 mmHg 51%
    19:00 +12°C° 0 mm 3 mps 746 mmHg 54%
    20:00 +12°C° 0 mm 2 mps 745 mmHg 57%
    21:00 +11°C° 0 mm 3 mps 745 mmHg 58%
    22:00 +11°C° 0 mm 3 mps 744 mmHg 58%
    23:00 +12°C° 0 mm 3 mps 743 mmHg 59%

    24 September, Monday

    Time Temperature Precipitation Wind Pressure Humidity
    00:00 +11°C° 1.2 mm 4 mps 742 mmHg 68%
    01:00 +10°C° 1.2 mm 5 mps 741 mmHg 78%
    02:00 +9°C° 1.2 mm 6 mps 740 mmHg 87%
    03:00 +9°C° 2.5 mm 6 mps 738 mmHg 88%
    04:00 +9°C° 2.5 mm 7 mps 737 mmHg 89%
    05:00 +9°C° 2.5 mm 8 mps 735 mmHg 90%
    06:00 +9°C° 3.3 mm 8 mps 734 mmHg 90%
    07:00 +10°C° 3.3 mm 8 mps 733 mmHg 90%
    08:00 +10°C° 3.3 mm 8 mps 732 mmHg 89%
    09:00 +11°C° 0.3 mm 7 mps 731 mmHg 88%
    10:00 +12°C° 0.3 mm 7 mps 731 mmHg 87%
    11:00 +14°C° 0.3 mm 7 mps 730 mmHg 85%
    12:00 +14°C° 0.5 mm 6 mps 729 mmHg 86%
    13:00 +14°C° 0.5 mm 6 mps 729 mmHg 86%
    14:00 +13°C° 0.5 mm 6 mps 728 mmHg 87%
    15:00 +13°C° 0.9 mm 6 mps 728 mmHg 87%
    16:00 +11°C° 0.9 mm 7 mps 727 mmHg 87%
    17:00 +11°C° 0.9 mm 7 mps 726 mmHg 87%
    18:00 +11°C° 0.4 mm 7 mps 726 mmHg 87%
    19:00 +10°C° 0.4 mm 8 mps 726 mmHg 87%
    20:00 +10°C° 0.4 mm 8 mps 726 mmHg 88%
    21:00 +8°C° 0.3 mm 9 mps 727 mmHg 87%
    22:00 +8°C° 0.3 mm 10 mps 727 mmHg 86%
    23:00 +7°C° 0.3 mm 10 mps 728 mmHg 86%
    Show more